Home > Weather > Inuvik > Past weeks

Flag for Canada Weather for the Past 2 Weeks in Inuvik, Northwest Territories, Canada

Now
9 °F

Overcast.


Feels Like: -7 °F
Forecast: 4 / 9 °F
Wind: 13 mph from East

Location: Inuvik

Current Time: Feb 11, 2016 at 5:29:11 PM

Latest Report: Feb 11, 2016 at 4:00 PM


Visibility: 15 mi

Pressure: 30.13 "Hg

Humidity: 78%

Dew point: 3 °F

Location of InuvikLocation

Historic Weather in Inuvik — Graph

°F

Inuvik Temperature Yesterday

Maximum temperature yesterday: 1 °F (at 3:00 PM)
Minimum temperature yesterday: -9 °F (at 12:00 AM)
Average temperature yesterday: -4 °F

High & Low Weather Summary for the Past Weeks

 TemperatureHumidityPressure
High14 °F (Jan 31, 5:00 AM)92% (Jan 29, 7:00 AM)30.54 "Hg (Jan 29, 7:00 AM)
Low-33 °F (Feb 5, 3:00 AM)67% (Feb 4, 10:00 AM)29.22 "Hg (Jan 28, 10:54 AM)
Average-6 °F80%30.04 "Hg
* Reported Jan 27 4:00 PM — Feb 11 4:00 PM, Inuvik, Weather by CustomWeather, © 2016

Note: Actual official high and low records may vary slightly from our data, if they occured in-between our weather recording intervals... More about our weather records

Advertising

Inuvik Weather History for the Previous 24 Hours

 ConditionsComfort  
Time TempWeatherWind HumidityBarometerVisibility
4:00 PM
Thu, Feb 11
9 °FOvercast.13 mph78%30.13 "Hg15 mi
3:00 PM9 °FMostly cloudy.10 mph78%30.15 "Hg15 mi
2:00 PM9 °FMostly cloudy.10 mph78%30.16 "Hg15 mi
1:00 PM7 °FLight snow. Mostly cloudy.14 mph78%30.17 "Hg15 mi
12:00 PM9 °FLight snow. Mostly cloudy.16 mph78%30.18 "Hg10 mi
11:00 AM9 °FLight snow. Mostly cloudy.16 mph78%30.19 "Hg6 mi
10:00 AM9 °FLight snow. Mostly cloudy.13 mph85%30.19 "Hg6 mi
9:00 AM9 °FLight snow. Overcast.15 mph85%30.21 "Hg3 mi
8:00 AM7 °FLight snow. Ice fog.15 mph85%30.22 "Hg3 mi
7:00 AM5 °FPassing clouds.14 mph85%30.24 "Hg15 mi
6:00 AM3 °FPassing clouds.15 mph85%30.26 "Hg15 mi
5:00 AM1 °FPassing clouds.14 mph92%30.28 "Hg15 mi
4:00 AM1 °FPassing clouds.14 mph85%30.29 "Hg15 mi
3:00 AM1 °FPassing clouds.15 mph85%30.29 "Hg15 mi
2:00 AM0 °FLow level haze.12 mph84%30.29 "Hg15 mi
1:00 AM-2 °FLow level haze.10 mph84%30.31 "Hg10 mi
12:00 AM-4 °FClear.13 mph84%30.33 "Hg15 mi
11:00 PM
Wed, Feb 10
-4 °FClear.12 mph84%30.33 "Hg15 mi
10:00 PM-2 °FClear.12 mph84%30.35 "Hg15 mi
9:00 PM-4 °FClear.14 mph84%30.35 "Hg15 mi
8:00 PM-2 °FLow level haze.13 mph77%30.36 "Hg15 mi
7:00 PM0 °FLow level haze.15 mph84%30.36 "Hg15 mi
6:00 PM0 °FLow level haze.14 mph84%30.38 "Hg15 mi
5:00 PM0 °FLow level haze.14 mph84%30.39 "Hg15 mi
Weather by CustomWeather, © 2016

See weather overviewHow to use our weather pages